Theta_e
312 312 313 312 313 313 314 314 314 315 315 315 316 317 318 319 318 305 299 308 314 323 320 305 304 303 299 297 298 295 287 283 284 286 287 293 292 296 297 293 294 298 298 301 304
312 312 312 313 313 313 314 314 314 314 315 315 316 317 318 319 307 301 310 319 320 320 305 301 300 301 296 295 295 290 284 285 290 290 290 293 292 293 293 293 294 296 300 303 303
312 312 312 313 313 313 314 314 313 314 314 315 315 317 318 315 299 300 317 319 319 314 306 303 302 299 295 295 294 291 285 291 292 295 295 294 293 294 292 290 292 293 296 299 299
311 312 312 313 313 313 313 313 313 313 314 314 315 317 318 306 289 303 318 318 317 309 305 302 300 295 292 291 294 289 293 294 295 296 295 293 294 292 293 292 297 296 297 297 296
312 312 312 312 313 313 313 313 313 313 314 314 316 318 308 296 296 307 316 312 307 306 302 300 297 295 291 292 293 290 291 295 295 295 294 296 292 292 291 295 296 297 296 295 296
312 312 312 312 312 313 313 312 312 313 314 314 316 316 301 292 305 307 306 307 306 304 302 302 299 298 295 293 291 293 293 293 295 294 295 293 292 293 293 295 295 295 294 295 296
313 313 313 312 312 313 313 312 312 313 314 314 316 310 299 294 304 304 306 304 305 304 300 303 303 297 296 292 296 294 289 290 292 294 293 293 289 290 293 294 292 292 294 296 296
314 314 313 312 312 313 312 311 312 313 313 315 316 304 295 305 303 304 305 304 306 307 304 304 304 299 296 296 292 288 287 283 289 293 294 290 283 291 293 291 291 293 296 296 296
314 313 313 313 312 312 312 311 312 312 313 314 302 298 293 308 300 303 303 301 303 304 306 308 302 295 293 287 283 285 279 281 285 292 292 289 283 291 293 291 290 293 295 295 296
313 312 312 313 312 312 311 311 311 307 306 309 305 293 296 295 299 302 302 303 300 300 298 297 292 286 287 283 275 278 279 282 281 287 289 286 287 289 291 291 290 293 294 295 296
313 313 312 313 312 311 304 298 293 291 295 293 293 293 296 300 302 300 303 300 299 295 288 292 286 280 284 287 287 285 284 280 284 289 287 286 288 289 289 289 291 292 292 293 295
314 313 313 313 311 309 299 293 291 293 284 295 296 296 298 299 295 298 301 294 292 287 289 286 284 288 290 289 287 285 281 280 284 288 289 287 285 287 288 289 292 292 292 293 294
314 313 313 311 308 299 295 295 301 299 285 291 295 295 296 298 293 294 297 294 290 287 286 282 286 290 287 285 285 282 279 276 282 286 289 284 279 282 286 289 291 293 294 294 294
314 313 313 309 296 294 291 299 300 298 282 286 290 294 296 297 292 299 298 295 291 286 286 284 288 286 284 284 285 281 286 284 284 282 274 282 272 274 281 285 288 289 291 291 293
314 313 312 305 292 292 294 298 299 293 278 288 290 298 296 292 293 293 298 294 288 288 285 282 284 283 283 284 286 282 288 285 283 282 284 276 270 274 281 280 284 287 288 289 291
313 313 310 300 297 297 297 297 293 285 279 284 289 288 289 291 291 293 293 295 293 288 286 285 289 286 285 287 286 287 285 283 283 281 271 272 272 273 274 279 283 286 287 287 289
313 312 304 300 292 299 299 291 281 278 285 282 283 288 287 286 289 289 288 286 284 279 281 283 284 287 288 283 286 285 280 270 269 268 272 277 274 277 280 285 286 285 284 286 287
312 309 303 301 301 300 292 281 275 279 279 286 286 286 284 286 286 286 284 282 286 283 279 278 276 284 287 283 281 283 281 272 267 269 272 279 274 278 284 286 287 284 283 285 285
311 300 299 300 301 297 286 270 277 280 284 284 285 281 281 285 285 284 283 283 286 286 279 279 279 285 286 286 285 282 279 282 278 271 273 275 279 283 284 283 282 282 282 283 284
302 297 296 301 300 294 282 277 278 285 287 285 282 282 279 281 283 282 282 285 285 287 287 284 278 283 285 287 286 283 285 277 276 266 267 272 276 277 282 283 283 281 281 282 283
300 293 297 301 298 288 277 276 282 286 288 285 282 281 281 282 282 281 282 284 287 287 287 284 280 279 283 282 281 282 281 281 280 278 273 271 273 281 282 284 283 281 282 282 283
295 286 298 299 284 279 275 277 285 284 286 287 284 283 282 283 281 281 281 283 289 288 284 285 281 275 278 281 283 282 281 281 275 273 276 277 275 284 283 285 284 281 283 283 283
292 287 297 294 279 274 273 277 282 282 285 285 284 285 285 283 280 283 283 287 288 287 285 285 275 267 273 279 281 281 283 283 281 280 276 273 274 283 282 281 282 281 281 283 282
288 281 286 289 284 280 275 275 278 283 283 287 285 285 284 283 283 281 283 286 287 287 292 288 279 276 274 277 279 279 281 283 281 274 276 277 276 280 281 281 280 280 282 282 283
288 284 286 279 282 279 282 281 280 279 283 286 282 284 284 281 281 281 283 284 285 291 286 285 274 276 279 280 281 281 281 281 280 281 276 276 278 281 283 282 281 281 281 282 283
286 284 285 283 286 283 283 282 281 283 281 281 279 284 285 282 283 281 283 283 283 284 284 283 273 275 271 277 278 276 280 280 281 282 281 282 282 284 284 282 280 282 282 281 282
293 292 291 286 284 282 282 284 283 284 284 285 284 284 283 284 285 284 286 286 285 284 282 281 274 269 268 272 271 272 274 278 279 280 282 279 283 284 282 282 282 282 283 283 283
Wind_Speed
7 9 10 10 11 11 12 13 14 15 15 16 16 15 14 14 10 5 6 4 8 16 12 7 3 5 4 4 5 3 5 1 1 3 5 5 6 5 5 4 4 6 5 7 10
7 8 10 11 11 12 12 12 13 14 15 15 15 14 13 12 2 7 3 10 11 13 5 7 5 5 5 4 4 6 4 2 0 1 2 4 3 6 7 8 7 8 10 11 12
7 9 9 11 12 12 13 13 13 14 15 15 15 14 14 6 2 3 9 12 11 9 2 0 1 3 5 4 5 2 3 1 2 2 2 4 6 4 5 4 2 9 14 15 13
7 8 9 11 13 14 14 14 14 15 15 14 14 14 13 2 1 3 11 12 9 7 4 5 5 5 4 4 2 5 2 1 2 3 3 4 4 4 5 2 7 8 8 8 10
6 7 8 10 12 14 15 15 15 15 14 12 11 13 4 4 1 5 9 10 4 4 7 4 6 2 5 3 2 4 1 2 3 1 2 3 5 3 4 5 6 7 10 12 12
7 7 8 9 12 14 15 15 16 15 13 10 10 9 2 2 3 6 6 5 6 5 7 7 3 1 6 3 3 1 2 2 3 5 2 4 3 2 3 8 9 10 11 11 13
8 8 8 9 11 14 15 15 15 14 12 9 8 2 4 2 2 5 5 3 2 2 3 3 1 3 3 3 1 2 2 2 3 5 2 1 1 4 6 7 7 9 10 14 15
10 9 8 9 11 13 16 16 16 13 9 7 6 1 2 1 1 3 4 3 4 3 3 1 3 6 4 2 5 4 5 3 2 7 3 3 3 2 7 8 9 9 15 13 14
10 8 8 7 10 13 16 18 17 9 7 5 1 1 2 2 2 3 2 2 3 2 2 1 3 4 4 4 4 6 2 2 7 2 4 4 2 3 5 6 8 11 13 12 14
8 7 4 7 9 13 17 18 8 6 2 0 0 3 1 2 1 2 2 2 2 2 3 5 5 4 4 4 3 1 2 3 3 3 2 3 4 2 6 6 9 11 12 13 14
9 8 5 7 8 12 9 5 4 2 3 1 2 2 2 3 1 1 1 2 2 5 3 3 6 2 1 2 4 4 2 2 4 4 4 2 5 5 7 6 11 13 15 14 15
10 8 6 6 6 10 2 2 0 1 4 1 0 1 1 1 1 1 2 2 3 2 1 4 3 3 2 2 2 2 2 4 5 3 0 5 6 2 4 3 7 10 11 13 15
11 9 6 2 5 3 0 1 0 1 1 2 2 2 1 2 2 1 2 1 3 2 2 3 2 4 2 1 1 3 4 2 3 5 1 7 5 4 3 3 6 6 8 10 13
10 9 7 4 3 1 3 3 1 1 5 2 1 1 1 2 2 1 2 2 2 3 3 1 1 2 1 0 3 3 4 3 2 4 1 4 6 5 4 5 5 6 8 9 11
13 10 11 6 2 1 1 3 1 3 4 2 1 0 1 2 4 1 2 2 4 3 2 2 4 2 0 1 3 4 4 2 1 2 2 4 4 7 4 4 6 7 7 8 7
17 14 14 3 1 3 2 2 3 7 9 2 2 2 3 1 0 2 2 4 1 3 2 2 1 2 3 1 2 1 0 4 3 2 2 4 5 7 2 5 4 4 7 7 9
19 17 8 5 2 4 3 3 6 5 3 3 3 3 2 3 2 2 3 2 4 4 2 1 1 1 2 1 1 3 4 4 7 5 6 3 2 10 5 5 4 3 6 8 7
22 19 9 3 4 4 3 7 4 3 5 3 4 3 4 5 1 2 3 2 3 3 2 5 4 4 2 1 2 2 3 5 5 2 6 1 5 6 5 4 4 2 2 5 7
23 3 4 4 8 3 5 2 10 8 7 10 4 3 3 2 4 3 5 5 7 7 6 4 1 1 2 2 2 2 2 2 4 2 2 4 6 5 4 4 3 3 0 4 6
9 5 4 8 8 6 4 10 5 3 6 2 9 6 8 5 5 6 6 4 5 4 2 4 3 0 1 2 3 1 4 3 3 1 5 5 5 6 6 9 6 5 5 3 3
7 6 6 12 6 3 8 10 7 5 4 7 7 5 5 8 7 5 5 2 4 5 2 4 2 1 2 4 7 2 1 2 2 4 3 4 7 6 8 10 10 8 6 5 3
6 5 8 12 6 4 6 9 5 5 2 4 4 2 8 9 7 5 9 3 8 9 8 3 4 4 3 1 2 1 5 5 4 4 3 1 10 1 4 8 9 8 7 5 4
10 4 4 3 11 6 3 3 3 6 6 8 8 6 3 7 4 5 5 1 7 7 8 7 1 3 7 5 3 4 4 4 3 2 6 5 8 2 4 4 6 8 7 5 4
6 6 4 5 2 11 7 5 7 3 3 5 5 5 4 3 1 6 3 1 3 4 4 5 2 4 6 4 4 4 4 6 6 3 4 9 4 4 6 7 6 7 6 7 6
5 7 7 12 14 4 13 13 14 10 5 6 4 7 9 5 4 5 4 3 3 6 3 4 5 2 4 5 3 5 6 8 14 10 9 2 9 6 9 11 10 7 6 7 7
9 9 4 4 14 18 18 20 22 16 14 8 6 15 8 8 9 10 9 6 7 4 6 2 2 2 4 2 3 6 12 13 15 16 18 17 30 11 6 4 9 12 9 8 8
4 3 8 14 15 18 23 21 22 13 8 4 14 8 9 8 3 2 3 6 9 10 6 7 7 4 6 4 6 10 13 20 9 8 15 17 14 7 7 9 11 13 14 13 10
Wind_Direction
348 349 349 351 354 354 354 353 350 349 347 346 346 344 344 345 336 34 42 286 320 325 335 308 22 6 48 64 47 113 61 120 357 10 309 332 357 328 316 319 20 15 37 311 321
336 344 346 345 346 346 349 349 347 346 344 343 343 341 340 341 6 46 320 335 336 347 8 22 8 356 51 33 25 73 88 142 113 151 295 308 4 323 359 12 342 343 340 342 348
325 336 343 343 340 340 342 344 344 344 343 342 341 339 337 340 87 340 337 344 339 357 186 127 275 46 63 41 3 67 119 210 234 328 7 323 11 18 2 14 333 319 328 342 347
313 326 334 339 340 338 337 339 340 341 340 339 338 336 333 331 66 290 340 343 350 10 70 20 33 58 70 71 344 99 70 59 326 331 12 345 298 106 70 291 303 309 316 330 346
292 306 323 331 336 336 335 335 336 335 335 336 337 339 356 49 35 329 344 351 6 31 50 42 51 84 98 89 76 70 41 323 331 300 96 289 343 193 48 332 329 328 353 354 344
269 282 301 319 329 333 334 333 332 332 332 334 339 339 35 70 308 344 340 6 17 29 25 43 84 79 98 66 75 89 21 287 328 345 107 35 348 140 358 345 346 359 351 345 338
256 267 285 308 323 329 330 327 326 325 323 325 341 29 61 137 350 334 2 8 29 29 77 54 59 74 133 94 23 90 92 335 347 354 21 330 335 45 337 328 333 339 338 345 336
243 252 259 295 314 324 325 322 320 315 311 316 331 349 106 277 297 13 352 7 10 35 86 66 67 103 60 124 33 51 55 14 329 3 347 43 300 24 340 349 338 346 349 340 336
231 258 274 283 308 322 321 317 314 304 296 315 9 72 130 317 48 320 42 16 332 8 18 76 68 83 42 82 42 16 98 340 322 63 328 35 307 357 313 333 346 356 350 339 331
234 254 285 292 306 322 322 310 292 321 316 261 103 64 311 168 306 350 7 35 31 340 8 46 55 73 48 69 189 228 53 306 266 288 325 312 261 308 346 360 355 1 346 345 344
210 230 241 272 305 328 347 357 17 331 18 265 131 103 106 298 308 58 18 13 2 48 50 356 71 103 177 70 121 129 168 238 265 286 348 293 294 309 342 11 12 5 360 349 346
203 207 227 253 310 330 27 19 25 197 316 204 163 327 203 142 92 49 45 94 59 84 314 27 92 175 140 122 123 132 100 283 285 277 225 323 298 294 329 358 28 13 357 352 345
198 190 217 215 332 10 348 233 85 216 118 314 200 160 190 141 138 178 77 123 93 96 36 119 118 125 82 31 172 181 166 231 241 333 10 332 311 324 285 359 18 15 13 355 353
207 185 173 124 355 265 273 153 92 321 57 251 275 14 75 121 77 4 49 108 55 138 137 147 23 133 90 185 133 314 195 168 293 32 281 52 284 299 312 317 346 358 1 335 353
192 182 161 138 178 220 292 117 110 45 342 87 153 282 99 147 141 17 347 48 146 140 136 198 159 151 93 240 164 235 162 209 264 210 55 301 76 265 341 328 322 328 353 319 333
182 176 138 105 80 253 99 77 41 46 255 150 115 161 109 39 357 118 73 48 113 103 43 210 282 173 179 164 187 347 92 39 44 67 12 237 122 281 220 215 294 321 336 335 331
174 158 140 140 195 133 98 40 48 167 351 221 184 169 162 156 162 157 150 161 172 99 212 68 236 266 161 107 84 77 59 335 351 8 230 157 61 245 220 213 203 308 328 329 335
166 152 147 135 119 109 62 53 150 237 211 132 121 102 182 157 183 148 126 235 248 103 126 159 314 176 177 159 155 88 138 151 244 275 286 109 229 256 201 160 167 134 301 333 350
150 111 135 159 121 73 75 123 203 201 164 149 80 153 258 202 158 154 202 213 197 172 169 143 261 81 71 124 131 159 138 164 107 32 358 244 282 288 157 211 185 186 306 328 333
145 133 158 149 118 79 79 233 221 193 124 118 177 157 178 195 163 181 188 207 179 184 164 215 121 358 139 103 21 155 153 66 4 29 289 284 272 240 214 220 215 225 213 258 309
140 140 148 141 84 95 205 224 200 213 151 161 203 149 191 173 177 197 198 244 165 150 153 152 102 217 109 201 181 127 187 94 145 161 214 301 263 215 208 194 194 208 203 202 234
139 151 164 153 143 201 191 197 173 156 151 195 150 156 178 161 170 217 205 230 171 150 167 195 140 182 174 116 329 211 206 156 135 231 246 143 273 318 224 193 170 189 196 189 191
143 108 166 260 193 209 273 194 181 135 180 180 203 214 184 167 171 197 188 340 158 154 160 179 282 45 350 6 4 225 198 166 112 95 212 156 261 38 101 163 199 179 196 192 194
122 134 156 227 158 178 152 195 197 201 176 182 171 140 130 154 252 169 144 120 169 152 134 109 123 187 183 158 137 205 208 195 168 168 202 232 260 266 224 195 218 215 187 196 201
152 180 170 192 211 198 185 176 185 183 216 184 205 213 167 146 125 175 143 118 36 156 96 128 190 158 245 230 211 218 216 199 214 213 197 239 223 216 225 207 202 205 188 186 204
148 151 140 153 168 185 193 207 200 189 158 204 192 192 182 159 184 183 146 186 181 173 151 159 206 108 301 10 227 248 236 232 233 234 256 266 275 204 202 154 159 196 194 196 202
133 104 141 164 168 180 207 199 207 178 209 178 191 142 195 202 123 333 117 126 153 145 155 148 135 105 262 342 321 295 218 209 214 201 217 231 234 162 170 195 203 195 190 197 197